THOR ABLESTAR DEB, 660

Orbit data source: Space-Track

THOR ABLESTAR DEB, 660 is space debris in LEO originally from a launch on Thu, 29 Jun 1961 UTC launched from the Air Force Eastern Test Range (AFETR). Debris objects in space refer to the collection of defunct objects orbiting the Earth. Examples of debris include non-operational satellites, rocket bodies, and fragments generated from explosions, collisions, or faulty payload assembly.

Loading next visibility...
Identifier
660, 1961-015HM
Orbit
LEO
Country
Flag of USUS
Related business
Manufacturer
Unknown
Mission
Spacecraft
Bus & Motor
Unknown
Mass
Unknown
Launch date (UTC)
1961-06-29 (65 years ago)
Launch vehicle
Unknown
Launch site
Air Force Eastern Test Range (AFETR)
Object type
Payload
Rocket body
Debris
Shape & HBR
Unknown shape, 0.1 m
Radar Cross Section
Small (<0.1 m²)

Expand to show TLE details & history
Last TLE update: 3 hours ago

TLE from 3 hours ago
0 THOR ABLESTAR DEB
1   660U 61015HM  26121.54057325  .00046505  00000-0  23527-2 0  9999
2   660  66.4892 308.8542 0019404 240.7290 153.1303 15.16610016378350
Epoch: 2026-05-01T12:58Z
TLE epoch observation values (Epoch: 2026-05-01T12:58:25.528Z)
Latitude
30.88607°
Longitude
-90.22513°
Altitude
531.157 km
Speed
7.594 km/s
True Right ascension
21h 35m 24s
True Declination
30° 43' 47"
Sunlit
Object was in daylight at epoch
Visualization orbit readout
Latitude
Unknown
Longitude
Unknown
Altitude
Unknown
Speed
Unknown
Apparent Right ascension
Unknown
Apparent Declination
Unknown
Sunlit
N/A
Visualization observer readout
Local Sidereal Time
23:54:30
Azimuth
Unknown
Elevation
Unknown
Doppler factor
Unknown
Orbital elements
Apogee altitude
527.805 km
Perigee altitude
501.056 km
Semi-major axis
6,892.567 km
Eccentricity
0.00194
Inclination
66.4892°
RAAN
308.8542°
Arg. of periapsis
240.729°
True anomaly
153.23058°
Mean anomaly
153.1303°
Eccentric anomaly
153.18046°
Mean motion
3.7929 °/min
Orbital period
94.91 mins
BSTAR
0.0023527
Loading maneuver chart data...
Computing Atmospheric mass density...
Loading historical data...
Loading historical data...
Loading historical data...
Loading historical data...
Loading historical data...
Loading historical data...
Loading historical data...

Documentation

Showing up to 5 results
|